EA3AGY-13 Weather Reports


time (UTC)temp
C
wind
direction
speed
KPH
gust
KPH
rain 1hr
cm
rain 24hr
cm
rain mn
cm
humidity
%
barometer
mb
20260507193602 6 45 3.2 8.0 0.00 0.00 0.00 33 1013.1
20260507184549 8 90 0.0 1.6 0.00 0.00 0.00 30 1012.5
20260507182547 9 90 0.0 1.6 0.00 0.00 0.00 30 1012.2
20260507181542 9 45 0.0 0.0 0.00 0.00 0.00 29 1012.1
20260507180540 9 90 0.0 0.0 0.00 0.00 0.00 29 1011.9
20260507175538 8 90 0.0 0.0 0.00 0.00 0.00 28 1011.7
20260507174535 10 45 0.0 1.6 0.00 0.00 0.00 28 1011.6
20260507173534 10 0 0.0 0.0 0.00 0.00 0.00 28 1011.6
20260507172533 10 90 0.0 1.6 0.00 0.00 0.00 28 1011.6
20260507171529 10 90 0.0 1.6 0.00 0.00 0.00 29 1011.5
20260507170526 9 0 0.0 4.8 0.00 0.00 0.00 30 1011.3
20260507161514 11 90 1.6 4.8 0.00 0.00 0.00 21 1010.7
20260507160513 10 135 1.6 4.8 0.00 0.00 0.00 22 1010.9
20260507155509 10 0 0.0 8.0 0.00 0.00 0.00 20 1011.0
20260507154507 12 0 0.0 3.2 0.00 0.00 0.00 21 1010.9
20260507151500 12 67 4.8 6.4 0.00 0.00 0.00 20 1010.9
20260507150458 12 45 1.6 6.4 0.00 0.00 0.00 19 1010.7
20260507145456 13 22 0.0 4.8 0.00 0.00 0.00 17 1010.8
20260507144453 14 90 0.0 4.8 0.00 0.00 0.00 17 1010.7
20260507143450 13 135 0.0 8.0 0.00 0.00 0.00 17 1010.8
20260507142450 14 45 1.6 3.2 0.00 0.00 0.00 17 1010.8
20260507140443 15 281 1.6 8.0 0.00 0.00 0.00 17 1010.9
20260507135443 16 22 3.2 6.4 0.00 0.00 0.00 18 1011.1
20260507131431 15 315 4.8 12.9 0.00 0.00 0.00 22 1011.3
20260507130431 14 45 3.2 4.8 0.00 0.00 0.00 22 1011.5
20260507123424 13 337 1.6 4.8 0.00 0.00 0.00 23 1011.5
20260507114411 13 0 1.6 4.8 0.00 0.00 0.15 21 1011.6
20260507105358 12 45 0.0 4.8 0.00 0.00 0.15 20 1011.9
20260507104356 11 157 1.6 6.4 0.00 0.00 0.15 21 1011.8
20260507103355 12 326 0.0 3.2 0.00 0.00 0.15 25 1012.0
20260507100347 11 90 1.6 4.8 0.00 0.00 0.15 23 1012.0
20260507095344 12 303 3.2 4.8 0.00 0.00 0.15 28 1011.9
20260507094342 12 337 3.2 4.8 0.00 0.00 0.15 27 1011.8
20260507093339 10 45 1.6 3.2 0.00 0.00 0.15 22 1011.9
20260507092337 10 135 1.6 4.8 0.00 0.00 0.15 26 1012.0
20260507090332 10 180 1.6 4.8 0.00 0.00 0.15 26 1011.9
20260507085330 10 292 1.6 6.4 0.00 0.00 0.15 31 1011.8
20260507082324 10 213 4.8 6.4 0.00 0.00 0.15 33 1012.0
20260507081321 10 225 6.4 6.4 0.00 0.00 0.15 35 1012.1
20260507075318 10 315 4.8 4.8 0.00 0.00 0.15 36 1012.0
20260507050235 3 90 4.8 8.0 0.00 0.00 0.15 43 1011.5
20260507044231 3 90 3.2 4.8 0.00 0.00 0.15 42 1011.3
20260507042226 4 90 6.4 8.0 0.00 0.00 0.15 44 1011.5
20260507041224 3 90 4.8 6.4 0.00 0.00 0.15 45 1011.4
20260507035219 4 90 1.6 4.8 0.00 0.00 0.15 40 1011.4
20260507034216 4 45 1.6 3.2 0.00 0.00 0.15 40 1011.3
20260507033214 4 45 1.6 1.6 0.00 0.00 0.15 39 1011.3
20260507031210 4 45 0.0 1.6 0.00 0.00 0.15 38 1011.4
20260507023202 4 90 1.6 3.2 0.00 0.00 0.15 41 1011.7
20260507021155 5 90 1.6 3.2 0.00 0.00 0.15 36 1011.7
20260507020153 6 0 0.0 0.0 0.00 0.00 0.15 36 1011.8
20260507012143 6 45 0.0 0.0 0.00 0.00 0.15 35 1011.9
20260507011141 6 90 0.0 0.0 0.00 0.00 0.15 34 1011.9
20260507004134 5 90 0.0 0.0 0.00 0.00 0.15 35 1012.2
20260507003131 6 45 0.0 0.0 0.00 0.00 0.15 35 1012.3
20260507002131 6 90 0.0 1.6 0.00 0.00 0.15 34 1012.4
20260507001127 6 45 0.0 0.0 0.00 0.00 0.15 34 1012.4
20260506231114 6 90 0.0 0.0 0.00 0.00 0.15 34 1012.4
20260506225108 6 135 0.0 1.6 0.00 0.00 0.15 33 1012.6
20260506213049 6 45 0.0 1.6 0.00 0.00 0.15 35 1012.5
20260506211044 5 90 1.6 4.8 0.00 0.00 0.15 36 1012.3
20260506205039 4 45 1.6 6.4 0.00 0.00 0.15 35 1012.4
20260506204037 4 45 3.2 6.4 0.00 0.00 0.15 39 1012.3
20260506203034 4 45 3.2 17.7 0.00 0.00 0.15 39 1012.2
20260506202032 5 0 6.4 12.9 0.00 0.00 0.15 33 1012.0
20260506201030 8 135 0.0 0.0 0.00 0.00 0.15 31 1011.7